C/2006 WD4 ( Lemmon )

Japanese version
Home page
Total 6,336 html files since Dec. 4, 1995
Updated on July 1, 2007

---------------------------------------------------------------------

* Profile

Discovery Date November 20, 2006
Magnitude 20.3 mag
Discoverer Mt. Lemmon Survey

* Pictures

* Orbital Elements

Epoch 2007 Apr. 10.0 TT = JDT 2454200.5
T 2007 Apr. 28.39836 TT                                 MPC
q   0.5912379            (2000.0)            P               Q
z  +0.0017204      Peri.  292.69168     +0.33343766     -0.88153338
 +/-0.0000019      Node   226.79061     -0.60468915     -0.47197407
e   0.9989828      Incl.  152.70415     -0.72330516     -0.01180529
From 80 observations 2006 Nov. 20-2007 May 29, mean residual 0".58.

* Finding Charts

* Magnitudes Graph

        m1 = 16.0 + 5 log d + 7.0 log r

---------------------------------------------------------------------

The orbital elements are published on M.P.E.C. 2007-K73.
The charts are made with StellaNavigator Ver.2.0 for Windows (AstroArts / ASCII).
The magnitudes graphs are made with Comet for Windows.

---------------------------------------------------------------------

Copyright(C) 1995-2008 Seiichi Yoshida (comet@aerith.net). All rights reserved.